TimeEDT,TemperatureF,Dew PointF,Humidity,Sea Level PressureIn,VisibilityMPH,Wind Direction,Wind SpeedMPH,Gust SpeedMPH,PrecipitationIn,Events,Conditions,WindDirDegrees,DateUTC
12:53 AM,73.0,72.0,96,30.02,10.0,SSE,3.5,-,N/A,,Clear,160,2013-07-14 04:53:00
1:53 AM,73.0,71.1,93,30.02,10.0,Calm,Calm,-,N/A,,Clear,0,2013-07-14 05:53:00
2:53 AM,72.0,71.1,97,30.01,10.0,South,4.6,-,N/A,,Clear,180,2013-07-14 06:53:00
3:53 AM,82.0,70.0,67,30.01,10.0,SSE,4.6,-,N/A,,Clear,160,2013-07-14 07:53:00
4:53 AM,84.0,70.0,63,30.01,10.0,South,4.6,-,N/A,,Clear,170,2013-07-14 08:53:00
5:53 AM,77.0,70.0,79,30.01,10.0,SSE,3.5,-,N/A,,Clear,150,2013-07-14 09:53:00
6:53 AM,80.1,71.1,74,30.01,10.0,SSE,4.6,-,N/A,,Clear,160,2013-07-14 10:53:00
7:53 AM,91.0,73.9,57,30.03,10.0,Calm,Calm,-,N/A,,Clear,0,2013-07-14 11:53:00
8:53 AM,98.1,73.9,46,30.06,10.0,South,8.1,-,N/A,,Clear,170,2013-07-14 12:53:00
9:53 AM,102.0,73.9,41,30.06,10.0,South,9.2,-,N/A,,Partly Cloudy,180,2013-07-14 13:53:00
10:53 AM,84.0,73.9,72,30.07,10.0,SE,6.9,-,N/A,,Mostly Cloudy,140,2013-07-14 14:53:00
11:11 AM,102.2,73.4,40,30.07,10.0,SSE,5.8,-,N/A,,Mostly Cloudy,150,2013-07-14 15:11:00
11:53 AM,100.0,73.0,42,30.08,10.0,ESE,10.4,-,N/A,,Overcast,110,2013-07-14 15:53:00
12:53 PM,91.9,75.0,58,30.09,10.0,ESE,13.8,-,N/A,,Overcast,110,2013-07-14 16:53:00
12:56 PM,91.4,75.2,59,30.09,10.0,ESE,17.3,24.2,N/A,,Overcast,110,2013-07-14 16:56:00
1:38 PM,91.4,73.4,55,30.10,10.0,SSE,16.1,26.5,N/A,Thunderstorm,Mostly Cloudy,150,2013-07-14 17:38:00
1:53 PM,91.0,72.0,53,30.10,10.0,SE,13.8,-,N/A,Thunderstorm,Mostly Cloudy,140,2013-07-14 17:53:00
2:00 PM,78.8,71.6,78,30.11,10.0,SE,13.8,-,N/A,Thunderstorm,Overcast,140,2013-07-14 18:00:00
2:36 PM,75.2,73.4,94,30.12,8.0,South,9.2,-,0.00,Rain,Light Rain,180,2013-07-14 18:36:00
2:53 PM,75.0,73.9,96,30.13,5.0,SW,9.2,-,0.01,Rain,Light Rain,220,2013-07-14 18:53:00
2:56 PM,75.2,73.4,94,30.13,6.0,SW,8.1,-,0.00,Rain,Light Rain,230,2013-07-14 18:56:00
3:53 PM,75.0,72.0,90,30.09,10.0,Calm,Calm,-,0.03,Rain,Light Rain,0,2013-07-14 19:53:00
4:53 PM,90.0,75.0,61,30.09,10.0,SSW,6.9,-,0.01,,Scattered Clouds,210,2013-07-14 20:53:00
4:57 PM,96.8,75.2,50,30.09,10.0,SW,9.2,-,N/A,,Mostly Cloudy,220,2013-07-14 20:57:00
5:53 PM,-9999,-9999,N/A,30.08,10.0,SSW,8.1,-,0.02,Rain,Light Rain,210,2013-07-14 21:53:00
6:53 PM,-9999,-9999,N/A,30.09,9.0,SSE,4.6,-,0.00,Rain,Light Rain,150,2013-07-14 22:53:00
7:53 PM,-9999,-9999,N/A,30.10,10.0,Calm,Calm,-,0.13,,Overcast,0,2013-07-14 23:53:00
8:53 PM,-9999,-9999,N/A,30.09,10.0,Calm,Calm,-,N/A,,Overcast,0,2013-07-15 00:53:00
9:53 PM,-9999,-9999,N/A,30.10,10.0,Calm,Calm,-,N/A,,Partly Cloudy,0,2013-07-15 01:53:00
10:53 PM,-9999,-9999,N/A,30.12,10.0,Calm,Calm,-,N/A,,Clear,0,2013-07-15 02:53:00
11:53 PM,-9999,-9999,N/A,30.12,10.0,Calm,Calm,-,N/A,,Clear,0,2013-07-15 03:53:00